owner,sensor,date,latitude,longitude,air_pressure(mBar),qcFlag 
TABS,ioos:station:wmo:42044:1,2017-03-01T00:00:00Z,26.1914,-97.0507,1011.42,11111222 
TABS,ioos:station:wmo:42044:1,2017-03-01T00:30:00Z,26.1914,-97.0507,1011.07,11111222 
TABS,ioos:station:wmo:42044:1,2017-03-01T01:00:00Z,26.1914,-97.0507,1011.48,11111222 
TABS,ioos:station:wmo:42044:1,2017-03-01T01:30:00Z,26.1914,-97.0507,1011.25,11111222 
TABS,ioos:station:wmo:42044:1,2017-03-01T02:00:00Z,26.1914,-97.0507,1011.29,11111222 
TABS,ioos:station:wmo:42044:1,2017-03-01T02:30:00Z,26.1914,-97.0507,1011.63,11111222 
TABS,ioos:station:wmo:42044:1,2017-03-01T03:00:00Z,26.1914,-97.0507,1011.89,11111222 
TABS,ioos:station:wmo:42044:1,2017-03-01T03:30:00Z,26.1914,-97.0507,1012.14,11111222 
TABS,ioos:station:wmo:42044:1,2017-03-01T04:00:00Z,26.1914,-97.0507,1012.68,11111222 
TABS,ioos:station:wmo:42044:1,2017-03-01T04:30:00Z,26.1914,-97.0507,1012.36,11111222 
TABS,ioos:station:wmo:42044:1,2017-03-01T05:00:00Z,26.1914,-97.0507,1012.38,11111222 
TABS,ioos:station:wmo:42044:1,2017-03-01T05:30:00Z,26.1914,-97.0507,1012.13,11111222 
TABS,ioos:station:wmo:42044:1,2017-03-01T06:00:00Z,26.1914,-97.0507,1012.69,11111222 
TABS,ioos:station:wmo:42044:1,2017-03-01T06:30:00Z,26.1914,-97.0507,1012.68,11111222 
TABS,ioos:station:wmo:42044:1,2017-03-01T07:00:00Z,26.1914,-97.0507,1013.18,11111222 
TABS,ioos:station:wmo:42044:1,2017-03-01T07:30:00Z,26.1914,-97.0507,1013.07,11111222 
TABS,ioos:station:wmo:42044:1,2017-03-01T08:00:00Z,26.1914,-97.0507,1012.27,11111222 
TABS,ioos:station:wmo:42044:1,2017-03-01T08:30:00Z,26.1914,-97.0507,1011.98,11111222 
TABS,ioos:station:wmo:42044:1,2017-03-01T09:00:00Z,26.1914,-97.0507,1011.25,11111222 
TABS,ioos:station:wmo:42044:1,2017-03-01T09:30:00Z,26.1914,-97.0507,1011.46,11111222 
TABS,ioos:station:wmo:42044:1,2017-03-01T10:00:00Z,26.1914,-97.0507,1011.55,11111222 
TABS,ioos:station:wmo:42044:1,2017-03-01T10:30:00Z,26.1914,-97.0507,1011.5,11111222 
TABS,ioos:station:wmo:42044:1,2017-03-01T11:00:00Z,26.1914,-97.0507,1012.39,11111222 
TABS,ioos:station:wmo:42044:1,2017-03-01T11:30:00Z,26.1914,-97.0507,1012.85,11111222 
TABS,ioos:station:wmo:42044:1,2017-03-01T12:00:00Z,26.1914,-97.0507,1013.36,11111222 
TABS,ioos:station:wmo:42044:1,2017-03-01T12:30:00Z,26.1914,-97.0507,1013.63,11111222 
TABS,ioos:station:wmo:42044:1,2017-03-01T13:00:00Z,26.1914,-97.0507,1014.19,11111222 
TABS,ioos:station:wmo:42044:1,2017-03-01T13:30:00Z,26.1914,-97.0507,1014.11,11111222 
TABS,ioos:station:wmo:42044:1,2017-03-01T14:00:00Z,26.1914,-97.0507,1013.99,11111222 
TABS,ioos:station:wmo:42044:1,2017-03-01T14:30:00Z,26.1914,-97.0507,1014.75,11111222 
TABS,ioos:station:wmo:42044:1,2017-03-01T15:00:00Z,26.1914,-97.0507,1015.25,11111222 
TABS,ioos:station:wmo:42044:1,2017-03-01T15:30:00Z,26.1914,-97.0507,1015.25,11111222 
TABS,ioos:station:wmo:42044:1,2017-03-01T16:00:00Z,26.1914,-97.0507,1015.61,11111222 
TABS,ioos:station:wmo:42044:1,2017-03-01T16:30:00Z,26.1914,-97.0507,1015.8,11111222 
TABS,ioos:station:wmo:42044:1,2017-03-01T17:00:00Z,26.1914,-97.0507,1016.07,11111222 
TABS,ioos:station:wmo:42044:1,2017-03-01T17:30:00Z,26.1914,-97.0507,1016.32,11111222 
TABS,ioos:station:wmo:42044:1,2017-03-01T18:00:00Z,26.1914,-97.0507,1016.26,11111222 
TABS,ioos:station:wmo:42044:1,2017-03-01T18:30:00Z,26.1914,-97.0507,1015.84,11111222 
TABS,ioos:station:wmo:42044:1,2017-03-01T19:00:00Z,26.1914,-97.0507,1015.28,11111222 
TABS,ioos:station:wmo:42044:1,2017-03-01T19:30:00Z,26.1914,-97.0507,1014.7,11111222 
TABS,ioos:station:wmo:42044:1,2017-03-01T20:00:00Z,26.1914,-97.0507,1014.28,11111222 
TABS,ioos:station:wmo:42044:1,2017-03-01T20:30:00Z,26.1914,-97.0507,1013.97,11111222 
TABS,ioos:station:wmo:42044:1,2017-03-01T21:00:00Z,26.1914,-97.0507,1013.87,11111222 
TABS,ioos:station:wmo:42044:1,2017-03-01T21:30:00Z,26.1914,-97.0507,1013.95,11111222 
TABS,ioos:station:wmo:42044:1,2017-03-01T22:00:00Z,26.1914,-97.0507,1014.2,11111222 
TABS,ioos:station:wmo:42044:1,2017-03-01T22:30:00Z,26.1914,-97.0507,1014.42,11111222 
TABS,ioos:station:wmo:42044:1,2017-03-01T23:00:00Z,26.1914,-97.0507,1014.86,11111222 
TABS,ioos:station:wmo:42044:1,2017-03-01T23:30:00Z,26.1914,-97.0507,1015.22,11111222 
TABS,ioos:station:wmo:42044:1,2017-03-02T00:00:00Z,26.1914,-97.0507,1015.8,11111222 
TABS,ioos:station:wmo:42044:1,2017-03-02T00:30:00Z,26.1914,-97.0507,1016.44,11111222 
TABS,ioos:station:wmo:42044:1,2017-03-02T01:00:00Z,26.1914,-97.0507,1016.78,11111222 
TABS,ioos:station:wmo:42044:1,2017-03-02T01:30:00Z,26.1914,-97.0507,1017.18,11111222 
TABS,ioos:station:wmo:42044:1,2017-03-02T02:00:00Z,26.1914,-97.0507,1017.7,11111222 
TABS,ioos:station:wmo:42044:1,2017-03-02T02:30:00Z,26.1914,-97.0507,1018.36,11111222 
TABS,ioos:station:wmo:42044:1,2017-03-02T03:00:00Z,26.1914,-97.0507,1018.58,11111222 
TABS,ioos:station:wmo:42044:1,2017-03-02T03:30:00Z,26.1914,-97.0507,1018.95,11111222 
TABS,ioos:station:wmo:42044:1,2017-03-02T04:00:00Z,26.1914,-97.0507,1018.96,11111222 
TABS,ioos:station:wmo:42044:1,2017-03-02T04:30:00Z,26.1914,-97.0507,1019.3,11111222 
TABS,ioos:station:wmo:42044:1,2017-03-02T05:00:00Z,26.1914,-97.0507,1019.66,11111222 
TABS,ioos:station:wmo:42044:1,2017-03-02T05:30:00Z,26.1914,-97.0507,1019.95,11111222 
TABS,ioos:station:wmo:42044:1,2017-03-02T06:00:00Z,26.1914,-97.0507,1019.71,11111222 
TABS,ioos:station:wmo:42044:1,2017-03-02T06:30:00Z,26.1914,-97.0507,1019.93,11111222 
TABS,ioos:station:wmo:42044:1,2017-03-02T07:00:00Z,26.1914,-97.0507,1020.66,11111222 
TABS,ioos:station:wmo:42044:1,2017-03-02T07:30:00Z,26.1914,-97.0507,1020.6,11111222 
TABS,ioos:station:wmo:42044:1,2017-03-02T08:00:00Z,26.1914,-97.0507,1020.07,11111222 
TABS,ioos:station:wmo:42044:1,2017-03-02T08:30:00Z,26.1914,-97.0507,1020.42,11111222 
TABS,ioos:station:wmo:42044:1,2017-03-02T09:00:00Z,26.1914,-97.0507,1019.85,11111222 
TABS,ioos:station:wmo:42044:1,2017-03-02T09:30:00Z,26.1914,-97.0507,1019.91,11111222 
TABS,ioos:station:wmo:42044:1,2017-03-02T10:00:00Z,26.1914,-97.0507,1020.46,11111222 
TABS,ioos:station:wmo:42044:1,2017-03-02T10:30:00Z,26.1914,-97.0507,1020.4,11111222 
TABS,ioos:station:wmo:42044:1,2017-03-02T11:00:00Z,26.1914,-97.0507,1020.65,11111222 
TABS,ioos:station:wmo:42044:1,2017-03-02T11:30:00Z,26.1914,-97.0507,1020.71,11111222 
TABS,ioos:station:wmo:42044:1,2017-03-02T12:00:00Z,26.1914,-97.0507,1021.49,11111222 
TABS,ioos:station:wmo:42044:1,2017-03-02T12:30:00Z,26.1914,-97.0507,1021.47,11111222 
TABS,ioos:station:wmo:42044:1,2017-03-02T13:00:00Z,26.1914,-97.0507,1022.48,11111222 
TABS,ioos:station:wmo:42044:1,2017-03-02T13:30:00Z,26.1914,-97.0507,1021.8,11111222 
TABS,ioos:station:wmo:42044:1,2017-03-02T14:00:00Z,26.1914,-97.0507,1023.05,11111222 
TABS,ioos:station:wmo:42044:1,2017-03-02T14:30:00Z,26.1914,-97.0507,1023.89,11111222 
TABS,ioos:station:wmo:42044:1,2017-03-02T15:00:00Z,26.1914,-97.0507,1024.8,11111222 
TABS,ioos:station:wmo:42044:1,2017-03-02T15:30:00Z,26.1914,-97.0507,1024.46,11111222 
TABS,ioos:station:wmo:42044:1,2017-03-02T16:00:00Z,26.1914,-97.0507,1025.61,11111222 
TABS,ioos:station:wmo:42044:1,2017-03-02T16:30:00Z,26.1914,-97.0507,1025.61,11111222 
TABS,ioos:station:wmo:42044:1,2017-03-02T17:00:00Z,26.1914,-97.0507,1025.65,11111222 
TABS,ioos:station:wmo:42044:1,2017-03-02T17:30:00Z,26.1914,-97.0507,1025.85,11111222 
TABS,ioos:station:wmo:42044:1,2017-03-02T18:00:00Z,26.1914,-97.0507,1026.28,11111222 
TABS,ioos:station:wmo:42044:1,2017-03-02T18:30:00Z,26.1914,-97.0507,1026.2,11111222 
TABS,ioos:station:wmo:42044:1,2017-03-02T19:00:00Z,26.1914,-97.0507,1025.69,11111222 
TABS,ioos:station:wmo:42044:1,2017-03-02T19:30:00Z,26.1914,-97.0507,1024.49,11111222 
TABS,ioos:station:wmo:42044:1,2017-03-02T20:00:00Z,26.1914,-97.0507,1024.54,11111222 
TABS,ioos:station:wmo:42044:1,2017-03-02T20:30:00Z,26.1914,-97.0507,1025.24,11111222 
TABS,ioos:station:wmo:42044:1,2017-03-02T21:00:00Z,26.1914,-97.0507,1024.45,11111222 
TABS,ioos:station:wmo:42044:1,2017-03-02T21:30:00Z,26.1914,-97.0507,1024.37,11111222 
TABS,ioos:station:wmo:42044:1,2017-03-02T22:00:00Z,26.1914,-97.0507,1025.32,11111222 
TABS,ioos:station:wmo:42044:1,2017-03-02T22:30:00Z,26.1914,-97.0507,1024.82,11111222 
TABS,ioos:station:wmo:42044:1,2017-03-02T23:00:00Z,26.1914,-97.0507,1025.25,11111222 
TABS,ioos:station:wmo:42044:1,2017-03-02T23:30:00Z,26.1914,-97.0507,1025.41,11111222 
TABS,ioos:station:wmo:42044:1,2017-03-03T00:00:00Z,26.1914,-97.0507,1025.76,11111222 
TABS,ioos:station:wmo:42044:1,2017-03-03T00:30:00Z,26.1914,-97.0507,1026.45,11111222 
TABS,ioos:station:wmo:42044:1,2017-03-03T01:00:00Z,26.1914,-97.0507,1026.45,11111222 
TABS,ioos:station:wmo:42044:1,2017-03-03T01:30:00Z,26.1914,-97.0507,1026.33,11111222 
TABS,ioos:station:wmo:42044:1,2017-03-03T02:00:00Z,26.1914,-97.0507,1026.95,11111222 
TABS,ioos:station:wmo:42044:1,2017-03-03T02:30:00Z,26.1914,-97.0507,1027.91,11111222 
TABS,ioos:station:wmo:42044:1,2017-03-03T03:00:00Z,26.1914,-97.0507,1027.9,11111222 
TABS,ioos:station:wmo:42044:1,2017-03-03T03:30:00Z,26.1914,-97.0507,1027.81,11111222 
TABS,ioos:station:wmo:42044:1,2017-03-03T04:00:00Z,26.1914,-97.0507,1027.98,11111222 
TABS,ioos:station:wmo:42044:1,2017-03-03T04:30:00Z,26.1914,-97.0507,1028.26,11111222 
TABS,ioos:station:wmo:42044:1,2017-03-03T05:00:00Z,26.1914,-97.0507,1028.07,11111222 
TABS,ioos:station:wmo:42044:1,2017-03-03T05:30:00Z,26.1914,-97.0507,1028.43,11111222 
TABS,ioos:station:wmo:42044:1,2017-03-03T06:00:00Z,26.1914,-97.0507,1028.0,11111222 
TABS,ioos:station:wmo:42044:1,2017-03-03T06:30:00Z,26.1914,-97.0507,1028.26,11111222 
TABS,ioos:station:wmo:42044:1,2017-03-03T07:00:00Z,26.1914,-97.0507,1028.31,11111222 
TABS,ioos:station:wmo:42044:1,2017-03-03T07:30:00Z,26.1914,-97.0507,1028.08,11111222 
TABS,ioos:station:wmo:42044:1,2017-03-03T08:00:00Z,26.1914,-97.0507,1027.86,11111222 
TABS,ioos:station:wmo:42044:1,2017-03-03T08:30:00Z,26.1914,-97.0507,1027.58,11111222 
TABS,ioos:station:wmo:42044:1,2017-03-03T09:00:00Z,26.1914,-97.0507,1027.26,11111222 
TABS,ioos:station:wmo:42044:1,2017-03-03T09:30:00Z,26.1914,-97.0507,1027.02,11111222 
TABS,ioos:station:wmo:42044:1,2017-03-03T10:00:00Z,26.1914,-97.0507,1027.33,11111222 
TABS,ioos:station:wmo:42044:1,2017-03-03T10:30:00Z,26.1914,-97.0507,1027.34,11111222 
TABS,ioos:station:wmo:42044:1,2017-03-03T11:00:00Z,26.1914,-97.0507,1027.4,11111222 
TABS,ioos:station:wmo:42044:1,2017-03-03T11:30:00Z,26.1914,-97.0507,1027.54,11111222 
TABS,ioos:station:wmo:42044:1,2017-03-03T12:00:00Z,26.1914,-97.0507,1027.72,11111222 
TABS,ioos:station:wmo:42044:1,2017-03-03T12:30:00Z,26.1914,-97.0507,1028.03,11111222 
TABS,ioos:station:wmo:42044:1,2017-03-03T13:00:00Z,26.1914,-97.0507,1028.65,11111222 
TABS,ioos:station:wmo:42044:1,2017-03-03T13:30:00Z,26.1914,-97.0507,1028.93,11111222 
TABS,ioos:station:wmo:42044:1,2017-03-03T14:00:00Z,26.1914,-97.0507,1028.96,11111222 
TABS,ioos:station:wmo:42044:1,2017-03-03T14:30:00Z,26.1914,-97.0507,1029.68,11111222 
TABS,ioos:station:wmo:42044:1,2017-03-03T15:00:00Z,26.1914,-97.0507,1030.0,11111222 
TABS,ioos:station:wmo:42044:1,2017-03-03T15:30:00Z,26.1914,-97.0507,1030.01,11111222 
TABS,ioos:station:wmo:42044:1,2017-03-03T16:00:00Z,26.1914,-97.0507,1030.28,11111222 
TABS,ioos:station:wmo:42044:1,2017-03-03T16:30:00Z,26.1914,-97.0507,1030.34,11111222 
TABS,ioos:station:wmo:42044:1,2017-03-03T17:00:00Z,26.1914,-97.0507,1030.29,11111222 
TABS,ioos:station:wmo:42044:1,2017-03-03T17:30:00Z,26.1914,-97.0507,1030.44,11111222 
TABS,ioos:station:wmo:42044:1,2017-03-03T18:00:00Z,26.1914,-97.0507,1030.01,11111222 
TABS,ioos:station:wmo:42044:1,2017-03-03T18:30:00Z,26.1914,-97.0507,1029.75,11111222 
TABS,ioos:station:wmo:42044:1,2017-03-03T19:00:00Z,26.1914,-97.0507,1029.31,11111222 
TABS,ioos:station:wmo:42044:1,2017-03-03T19:30:00Z,26.1914,-97.0507,1028.97,11111222 
TABS,ioos:station:wmo:42044:1,2017-03-03T20:00:00Z,26.1914,-97.0507,1028.35,11111222 
TABS,ioos:station:wmo:42044:1,2017-03-03T20:30:00Z,26.1914,-97.0507,1028.04,11111222 
TABS,ioos:station:wmo:42044:1,2017-03-03T21:00:00Z,26.1914,-97.0507,1027.48,11111222 
TABS,ioos:station:wmo:42044:1,2017-03-03T21:30:00Z,26.1914,-97.0507,1027.34,11111222 
TABS,ioos:station:wmo:42044:1,2017-03-03T22:00:00Z,26.1914,-97.0507,1027.45,11111222 
TABS,ioos:station:wmo:42044:1,2017-03-03T22:30:00Z,26.1914,-97.0507,1027.48,11111222 
TABS,ioos:station:wmo:42044:1,2017-03-03T23:00:00Z,26.1914,-97.0507,1027.11,11111222 
TABS,ioos:station:wmo:42044:1,2017-03-03T23:30:00Z,26.1914,-97.0507,1027.49,11111222 
TABS,ioos:station:wmo:42044:1,2017-03-04T00:00:00Z,26.1914,-97.0507,1027.98,11111222 
TABS,ioos:station:wmo:42044:1,2017-03-04T00:30:00Z,26.1914,-97.0507,1027.9,11111222 
TABS,ioos:station:wmo:42044:1,2017-03-04T01:00:00Z,26.1914,-97.0507,1027.87,11111222 
TABS,ioos:station:wmo:42044:1,2017-03-04T01:30:00Z,26.1914,-97.0507,1027.25,11111222 
TABS,ioos:station:wmo:42044:1,2017-03-04T02:00:00Z,26.1914,-97.0507,1027.57,11111222 
TABS,ioos:station:wmo:42044:1,2017-03-04T02:30:00Z,26.1914,-97.0507,1028.02,11111222 
TABS,ioos:station:wmo:42044:1,2017-03-04T03:00:00Z,26.1914,-97.0507,1027.95,11111222 
TABS,ioos:station:wmo:42044:1,2017-03-04T03:30:00Z,26.1914,-97.0507,1027.57,11111222 
TABS,ioos:station:wmo:42044:1,2017-03-04T04:00:00Z,26.1914,-97.0507,1027.76,11111222 
TABS,ioos:station:wmo:42044:1,2017-03-04T04:30:00Z,26.1914,-97.0507,1027.38,11111222 
TABS,ioos:station:wmo:42044:1,2017-03-04T05:00:00Z,26.1914,-97.0507,1027.66,11111222 
TABS,ioos:station:wmo:42044:1,2017-03-04T05:30:00Z,26.1914,-97.0507,1027.27,11111222 
TABS,ioos:station:wmo:42044:1,2017-03-04T06:00:00Z,26.1914,-97.0507,1026.85,11111222 
TABS,ioos:station:wmo:42044:1,2017-03-04T06:30:00Z,26.1914,-97.0507,1026.7,11111222 
TABS,ioos:station:wmo:42044:1,2017-03-04T07:00:00Z,26.1914,-97.0507,1026.34,11111222 
TABS,ioos:station:wmo:42044:1,2017-03-04T07:30:00Z,26.1914,-97.0507,1026.12,11111222 
TABS,ioos:station:wmo:42044:1,2017-03-04T08:00:00Z,26.1914,-97.0507,1026.07,11111222 
TABS,ioos:station:wmo:42044:1,2017-03-04T08:30:00Z,26.1914,-97.0507,1025.31,11111222 
TABS,ioos:station:wmo:42044:1,2017-03-04T09:00:00Z,26.1914,-97.0507,1024.8,11111222 
TABS,ioos:station:wmo:42044:1,2017-03-04T09:30:00Z,26.1914,-97.0507,1024.2,11111222 
TABS,ioos:station:wmo:42044:1,2017-03-04T10:00:00Z,26.1914,-97.0507,1024.6,11111222 
TABS,ioos:station:wmo:42044:1,2017-03-04T10:30:00Z,26.1914,-97.0507,1024.35,11111222 
TABS,ioos:station:wmo:42044:1,2017-03-04T11:00:00Z,26.1914,-97.0507,1024.39,11111222 
TABS,ioos:station:wmo:42044:1,2017-03-04T11:30:00Z,26.1914,-97.0507,1024.68,11111222 
TABS,ioos:station:wmo:42044:1,2017-03-04T12:00:00Z,26.1914,-97.0507,1024.24,11111222 
TABS,ioos:station:wmo:42044:1,2017-03-04T12:30:00Z,26.1914,-97.0507,1024.58,11111222 
TABS,ioos:station:wmo:42044:1,2017-03-04T13:00:00Z,26.1914,-97.0507,1024.64,11111222 
TABS,ioos:station:wmo:42044:1,2017-03-04T13:30:00Z,26.1914,-97.0507,1024.99,11111222 
TABS,ioos:station:wmo:42044:1,2017-03-04T14:00:00Z,26.1914,-97.0507,1025.03,11111222 
TABS,ioos:station:wmo:42044:1,2017-03-04T14:30:00Z,26.1914,-97.0507,1024.76,11111222 
TABS,ioos:station:wmo:42044:1,2017-03-04T15:00:00Z,26.1914,-97.0507,1025.15,11111222 
TABS,ioos:station:wmo:42044:1,2017-03-04T15:30:00Z,26.1914,-97.0507,1025.28,11111222 
TABS,ioos:station:wmo:42044:1,2017-03-04T16:00:00Z,26.1914,-97.0507,1025.17,11111222 
TABS,ioos:station:wmo:42044:1,2017-03-04T16:30:00Z,26.1914,-97.0507,1024.56,11111222 
TABS,ioos:station:wmo:42044:1,2017-03-04T17:00:00Z,26.1914,-97.0507,1024.28,11111222 
TABS,ioos:station:wmo:42044:1,2017-03-04T17:30:00Z,26.1914,-97.0507,1024.26,11111222 
TABS,ioos:station:wmo:42044:1,2017-03-04T18:00:00Z,26.1914,-97.0507,1024.01,11111222 
TABS,ioos:station:wmo:42044:1,2017-03-04T18:30:00Z,26.1914,-97.0507,1023.15,11111222 
TABS,ioos:station:wmo:42044:1,2017-03-04T19:00:00Z,26.1914,-97.0507,1022.87,11111222 
TABS,ioos:station:wmo:42044:1,2017-03-04T19:30:00Z,26.1914,-97.0507,1022.66,11111222 
TABS,ioos:station:wmo:42044:1,2017-03-04T20:00:00Z,26.1914,-97.0507,1022.25,11111222 
TABS,ioos:station:wmo:42044:1,2017-03-04T20:30:00Z,26.1914,-97.0507,1021.78,11111222 
TABS,ioos:station:wmo:42044:1,2017-03-04T21:00:00Z,26.1914,-97.0507,1021.59,11111222 
TABS,ioos:station:wmo:42044:1,2017-03-04T21:30:00Z,26.1914,-97.0507,1021.42,11111222 
TABS,ioos:station:wmo:42044:1,2017-03-04T22:00:00Z,26.1914,-97.0507,1020.9,11111222 
TABS,ioos:station:wmo:42044:1,2017-03-04T22:30:00Z,26.1914,-97.0507,1020.59,11111222 
TABS,ioos:station:wmo:42044:1,2017-03-04T23:00:00Z,26.1914,-97.0507,1020.26,11111222 
TABS,ioos:station:wmo:42044:1,2017-03-04T23:30:00Z,26.1914,-97.0507,1020.51,11111222 
TABS,ioos:station:wmo:42044:1,2017-03-05T00:00:00Z,26.1914,-97.0507,1020.92,11111222 
TABS,ioos:station:wmo:42044:1,2017-03-05T00:30:00Z,26.1914,-97.0507,1021.17,11111222 
TABS,ioos:station:wmo:42044:1,2017-03-05T01:00:00Z,26.1914,-97.0507,1020.89,11111222 
TABS,ioos:station:wmo:42044:1,2017-03-05T01:30:00Z,26.1914,-97.0507,1021.22,11111222 
TABS,ioos:station:wmo:42044:1,2017-03-05T02:00:00Z,26.1914,-97.0507,1021.72,11111222 
TABS,ioos:station:wmo:42044:1,2017-03-05T02:30:00Z,26.1914,-97.0507,1021.89,11111222 
TABS,ioos:station:wmo:42044:1,2017-03-05T03:00:00Z,26.1914,-97.0507,1022.41,11111222 
TABS,ioos:station:wmo:42044:1,2017-03-05T03:30:00Z,26.1914,-97.0507,1022.82,11111222 
TABS,ioos:station:wmo:42044:1,2017-03-05T04:00:00Z,26.1914,-97.0507,1022.2,11111222 
TABS,ioos:station:wmo:42044:1,2017-03-05T04:30:00Z,26.1914,-97.0507,1022.04,11111222 
TABS,ioos:station:wmo:42044:1,2017-03-05T05:00:00Z,26.1914,-97.0507,1021.91,11111222 
TABS,ioos:station:wmo:42044:1,2017-03-05T05:30:00Z,26.1914,-97.0507,1021.53,11111222 
TABS,ioos:station:wmo:42044:1,2017-03-05T06:00:00Z,26.1914,-97.0507,1020.9,11111222 
TABS,ioos:station:wmo:42044:1,2017-03-05T06:30:00Z,26.1914,-97.0507,1020.84,11111222 
TABS,ioos:station:wmo:42044:1,2017-03-05T07:00:00Z,26.1914,-97.0507,1020.78,11111222 
TABS,ioos:station:wmo:42044:1,2017-03-05T07:30:00Z,26.1914,-97.0507,1020.31,11111222 
TABS,ioos:station:wmo:42044:1,2017-03-05T08:00:00Z,26.1914,-97.0507,1019.78,11111222 
TABS,ioos:station:wmo:42044:1,2017-03-05T08:30:00Z,26.1914,-97.0507,1019.21,11111222 
TABS,ioos:station:wmo:42044:1,2017-03-05T09:00:00Z,26.1914,-97.0507,1018.51,11111222 
TABS,ioos:station:wmo:42044:1,2017-03-05T09:30:00Z,26.1914,-97.0507,1019.27,11111222 
TABS,ioos:station:wmo:42044:1,2017-03-05T10:00:00Z,26.1914,-97.0507,1019.25,11111222 
TABS,ioos:station:wmo:42044:1,2017-03-05T10:30:00Z,26.1914,-97.0507,1019.4,11111222 
TABS,ioos:station:wmo:42044:1,2017-03-05T11:00:00Z,26.1914,-97.0507,1019.32,11111222 
TABS,ioos:station:wmo:42044:1,2017-03-05T11:30:00Z,26.1914,-97.0507,1019.33,11111222 
TABS,ioos:station:wmo:42044:1,2017-03-05T12:00:00Z,26.1914,-97.0507,1019.26,11111222 
TABS,ioos:station:wmo:42044:1,2017-03-05T12:30:00Z,26.1914,-97.0507,1019.44,11111222 
TABS,ioos:station:wmo:42044:1,2017-03-05T13:00:00Z,26.1914,-97.0507,1019.57,11111222 
TABS,ioos:station:wmo:42044:1,2017-03-05T13:30:00Z,26.1914,-97.0507,1019.81,11111222 
TABS,ioos:station:wmo:42044:1,2017-03-05T14:00:00Z,26.1914,-97.0507,1019.88,11111222 
TABS,ioos:station:wmo:42044:1,2017-03-05T14:30:00Z,26.1914,-97.0507,1019.97,11111222 
TABS,ioos:station:wmo:42044:1,2017-03-05T15:00:00Z,26.1914,-97.0507,1020.25,11111222 
TABS,ioos:station:wmo:42044:1,2017-03-05T15:30:00Z,26.1914,-97.0507,1020.7,11111222 
TABS,ioos:station:wmo:42044:1,2017-03-05T16:00:00Z,26.1914,-97.0507,1020.87,11111222 
TABS,ioos:station:wmo:42044:1,2017-03-05T16:30:00Z,26.1914,-97.0507,1020.61,11111222 
TABS,ioos:station:wmo:42044:1,2017-03-05T17:00:00Z,26.1914,-97.0507,1020.38,11111222 
TABS,ioos:station:wmo:42044:1,2017-03-05T17:30:00Z,26.1914,-97.0507,1020.13,11111222 
TABS,ioos:station:wmo:42044:1,2017-03-05T18:00:00Z,26.1914,-97.0507,1019.67,11111222 
TABS,ioos:station:wmo:42044:1,2017-03-05T18:30:00Z,26.1914,-97.0507,1019.22,11111222 
TABS,ioos:station:wmo:42044:1,2017-03-05T19:00:00Z,26.1914,-97.0507,1018.63,11111222 
TABS,ioos:station:wmo:42044:1,2017-03-05T19:30:00Z,26.1914,-97.0507,1017.94,11111222 
TABS,ioos:station:wmo:42044:1,2017-03-05T20:00:00Z,26.1914,-97.0507,1017.65,11111222 
TABS,ioos:station:wmo:42044:1,2017-03-05T20:30:00Z,26.1914,-97.0507,1017.04,11111222 
TABS,ioos:station:wmo:42044:1,2017-03-05T21:00:00Z,26.1914,-97.0507,1016.91,11111222 
TABS,ioos:station:wmo:42044:1,2017-03-05T21:30:00Z,26.1914,-97.0507,1016.45,11111222 
TABS,ioos:station:wmo:42044:1,2017-03-05T22:00:00Z,26.1914,-97.0507,1016.12,11111222 
TABS,ioos:station:wmo:42044:1,2017-03-05T22:30:00Z,26.1914,-97.0507,1016.1,11111222 
TABS,ioos:station:wmo:42044:1,2017-03-05T23:00:00Z,26.1914,-97.0507,1016.22,11111222 
TABS,ioos:station:wmo:42044:1,2017-03-06T00:00:00Z,26.1914,-97.0507,1016.5,11111222 
TABS,ioos:station:wmo:42044:1,2017-03-06T00:30:00Z,26.1914,-97.0507,1016.58,11111222 
TABS,ioos:station:wmo:42044:1,2017-03-06T01:00:00Z,26.1914,-97.0507,1016.42,11111222 
TABS,ioos:station:wmo:42044:1,2017-03-06T01:30:00Z,26.1914,-97.0507,1016.61,11111222 
TABS,ioos:station:wmo:42044:1,2017-03-06T02:00:00Z,26.1914,-97.0507,1016.9,11111222 
TABS,ioos:station:wmo:42044:1,2017-03-06T02:30:00Z,26.1914,-97.0507,1016.78,11111222 
TABS,ioos:station:wmo:42044:1,2017-03-06T03:00:00Z,26.1914,-97.0507,1017.25,11111222 
TABS,ioos:station:wmo:42044:1,2017-03-06T03:30:00Z,26.1914,-97.0507,1017.42,11111222 
TABS,ioos:station:wmo:42044:1,2017-03-06T04:00:00Z,26.1914,-97.0507,1017.26,11111222 
TABS,ioos:station:wmo:42044:1,2017-03-06T04:30:00Z,26.1914,-97.0507,1017.35,11111222 
TABS,ioos:station:wmo:42044:1,2017-03-06T05:00:00Z,26.1914,-97.0507,1017.05,11111222 
TABS,ioos:station:wmo:42044:1,2017-03-06T05:30:00Z,26.1914,-97.0507,1016.96,11111222 
TABS,ioos:station:wmo:42044:1,2017-03-06T06:00:00Z,26.1914,-97.0507,1017.01,11111222 
TABS,ioos:station:wmo:42044:1,2017-03-06T06:30:00Z,26.1914,-97.0507,1016.6,11111222 
TABS,ioos:station:wmo:42044:1,2017-03-06T07:00:00Z,26.1914,-97.0507,1016.53,11111222 
TABS,ioos:station:wmo:42044:1,2017-03-06T07:30:00Z,26.1914,-97.0507,1016.19,11111222 
TABS,ioos:station:wmo:42044:1,2017-03-06T08:00:00Z,26.1914,-97.0507,1015.96,11111222 
TABS,ioos:station:wmo:42044:1,2017-03-06T08:30:00Z,26.1914,-97.0507,1015.69,11111222 
TABS,ioos:station:wmo:42044:1,2017-03-06T09:00:00Z,26.1914,-97.0507,1015.04,11111222 
TABS,ioos:station:wmo:42044:1,2017-03-06T09:30:00Z,26.1914,-97.0507,1014.75,11111222 
TABS,ioos:station:wmo:42044:1,2017-03-06T10:00:00Z,26.1914,-97.0507,1014.53,11111222 
TABS,ioos:station:wmo:42044:1,2017-03-06T10:30:00Z,26.1914,-97.0507,1014.45,11111222 
TABS,ioos:station:wmo:42044:1,2017-03-06T11:00:00Z,26.1914,-97.0507,1014.29,11111222 
TABS,ioos:station:wmo:42044:1,2017-03-06T11:30:00Z,26.1914,-97.0507,1014.42,11111222 
TABS,ioos:station:wmo:42044:1,2017-03-06T12:00:00Z,26.1914,-97.0507,1014.52,11111222 
TABS,ioos:station:wmo:42044:1,2017-03-06T12:30:00Z,26.1914,-97.0507,1014.38,11111222 
TABS,ioos:station:wmo:42044:1,2017-03-06T13:00:00Z,26.1914,-97.0507,1014.92,11111222 
TABS,ioos:station:wmo:42044:1,2017-03-06T13:30:00Z,26.1914,-97.0507,1014.97,11111222 
TABS,ioos:station:wmo:42044:1,2017-03-06T14:00:00Z,26.1914,-97.0507,1015.33,11111222 
TABS,ioos:station:wmo:42044:1,2017-03-06T14:30:00Z,26.1914,-97.0507,1015.78,11111222 
TABS,ioos:station:wmo:42044:1,2017-03-06T15:00:00Z,26.1914,-97.0507,1016.05,11111222 
TABS,ioos:station:wmo:42044:1,2017-03-06T15:30:00Z,26.1914,-97.0507,1016.38,11111222 
TABS,ioos:station:wmo:42044:1,2017-03-06T16:00:00Z,26.1914,-97.0507,1016.46,11111222 
TABS,ioos:station:wmo:42044:1,2017-03-06T16:30:00Z,26.1914,-97.0507,1016.31,11111222 
TABS,ioos:station:wmo:42044:1,2017-03-06T17:00:00Z,26.1914,-97.0507,1016.13,11111222 
TABS,ioos:station:wmo:42044:1,2017-03-06T17:30:00Z,26.1914,-97.0507,1015.74,11111222 
TABS,ioos:station:wmo:42044:1,2017-03-06T18:00:00Z,26.1914,-97.0507,1015.17,11111222 
TABS,ioos:station:wmo:42044:1,2017-03-06T18:30:00Z,26.1914,-97.0507,1014.41,11111222 
TABS,ioos:station:wmo:42044:1,2017-03-06T19:00:00Z,26.1914,-97.0507,1014.02,11111222 